[[{"header":{"parameterUnit":"m.s-1","parameterCategory":1,"la1":30.2991,"la2":30.254,"lo1":-89.0895,"lo2":-89.0444,"dy":0.0017,"dx":0.0017,"nx":28,"ny":28,"refTime":"2024-03-12T21:00:00:Z","depth":0,"parameterNumber":2,"parameterNumberName":"U-component_of_WINDS"},"data":[0,0,0,0,0,0,0,0,0,0,0,0,0,0,0,0,0,0,0,0,0,0,0,0,0,0,0,0,0,0,0,0,0,0,0,0,0,0,0,0,0,0,0,0,0,0,0,0,0,0,0,0,0,0,0,0,0,0,-0.4151,-0.4151,0,-0.4077,-0.4076,-0.4075,-0.4021,-0.402,-0.402,-0.4019,-0.3945,-0.3944,-0.3942,0,0,0,0,0,0,0,0,0,0,0,0,0,-0.4251,-0.4249,-0.4152,-0.4151,-0.415,-0.4077,-0.4076,-0.4075,-0.4021,-0.402,-0.402,-0.4019,-0.3946,-0.3944,-0.3942,0,0,0,0,0,0,0,0,0,0,0,0,0,-0.4195,-0.4249,-0.4152,-0.4114,-0.411,-0.4077,-0.4076,-0.4074,-0.4021,-0.402,-0.4019,-0.4019,-0.3946,-0.3944,-0.3942,-0.3941,0,0,-0.3935,-0.3934,0,0,0,0,0,0,0,0,-0.4198,-0.4192,-0.412,-0.4116,-0.4112,-0.4057,-0.4083,-0.403,-0.4021,-0.4055,-0.4019,-0.4018,-0.3983,-0.3978,-0.3965,-0.3938,-0.3935,-0.3934,-0.3933,-0.3932,-0.3931,0,0,0,0,0,0,0,-0.4202,-0.4195,-0.4122,-0.4119,-0.4114,-0.4102,-0.4093,-0.4073,-0.4024,-0.4052,-0.4048,-0.4039,-0.3981,-0.3968,-0.3963,-0.3934,-0.3934,-0.3932,-0.3931,-0.393,-0.3903,-0.3904,0,0,0,0,0,0,-0.4212,-0.4198,-0.4124,-0.412,-0.4154,-0.41,-0.4091,-0.4075,-0.4024,-0.4015,-0.404,-0.4037,-0.3972,-0.3966,-0.396,-0.3957,-0.3932,-0.393,-0.3928,-0.3902,-0.3903,-0.3904,0,0,0,0,0,0,-0.4214,-0.4206,-0.4127,-0.4158,-0.4147,-0.4099,-0.4083,-0.4074,-0.4061,-0.4015,-0.4006,-0.4036,-0.3971,-0.3964,-0.3946,-0.3954,-0.3929,-0.3927,-0.3902,-0.3903,-0.3904,-0.3951,0,0,0,0,0,0,-0.4217,-0.4207,-0.4205,-0.4158,-0.4145,-0.4114,-0.4083,-0.4073,-0.4057,-0.4053,-0.4008,-0.4001,-0.397,-0.395,-0.3944,-0.395,-0.3925,-0.3901,-0.3902,-0.3903,-0.3948,-0.3953,-0.3957,0,0,0,0,0,-0.4221,-0.4222,-0.4206,-0.4197,-0.4143,-0.4115,-0.4107,-0.4072,-0.4058,-0.4057,-0.4027,-0.4002,-0.3954,-0.3949,-0.3942,-0.3947,-0.39,-0.3902,-0.3903,-0.3946,-0.3952,-0.3957,0,0,0,0,0,0,-0.4272,-0.4215,-0.4196,-0.4182,-0.4154,-0.4105,-0.4103,-0.4079,-0.4054,-0.4051,-0.4009,-0.3999,-0.3987,-0.3965,-0.3961,-0.3945,-0.3924,-0.3924,-0.3959,-0.3965,-0.3969,-0.3975,-0.3923,0,0,0,0,0,-0.4282,-0.4263,-0.4214,-0.4207,-0.4193,-0.4151,-0.4137,-0.4112,-0.4081,-0.4069,-0.4038,-0.401,-0.3988,-0.3975,-0.3953,-0.3945,-0.3935,-0.3945,-0.395,-0.3954,-0.3954,-0.395,-0.3954,-0.3909,-0.3909,-0.3909,0,0,-0.4302,-0.4268,-0.4259,-0.4216,-0.4191,-0.4173,-0.4141,-0.4123,-0.411,-0.4066,-0.4048,-0.4025,-0.3991,-0.3978,-0.3971,-0.396,-0.3965,-0.3956,-0.3959,-0.3958,-0.3952,-0.3956,-0.396,-0.391,-0.391,-0.391,0,0,-0.4329,-0.4301,-0.4292,-0.4267,-0.423,-0.4201,-0.4199,-0.4155,-0.4137,-0.4118,-0.4085,-0.407,-0.4033,-0.4011,-0.3994,-0.4014,-0.399,-0.4008,-0.4032,-0.4028,-0.4031,-0.4034,-0.4042,-0.4045,-0.4008,-0.4009,-0.4009,0,-0.4359,-0.433,-0.4291,-0.4275,-0.4258,-0.4216,-0.4208,-0.4186,-0.4143,-0.4133,-0.412,-0.4074,-0.4048,-0.4031,-0.4035,-0.4023,-0.4021,-0.4013,-0.4034,-0.4036,-0.4038,-0.4045,-0.4048,-0.4011,-0.4011,-0.401,-0.401,0,-0.4369,-0.435,-0.4347,-0.4306,-0.4288,-0.4276,-0.4236,-0.4223,-0.42,-0.4173,-0.4155,-0.4122,-0.4093,-0.4087,-0.4064,-0.4066,-0.4061,-0.4041,-0.402,-0.4046,-0.4052,-0.4054,-0.4015,-0.4014,-0.4013,-0.4012,0,0,-0.4427,-0.4364,-0.4364,-0.4345,-0.4301,-0.4286,-0.4272,-0.4243,-0.4233,-0.4205,-0.4194,-0.4164,-0.4146,-0.4128,-0.4102,-0.4099,-0.4117,-0.408,-0.4078,-0.4089,-0.4119,-0.4134,-0.4138,-0.4101,-0.4101,-0.4102,-0.4122,0,-0.4448,-0.4421,-0.4385,-0.437,-0.4353,-0.4313,-0.4302,-0.4274,-0.4249,-0.4231,-0.4204,-0.4184,-0.4161,-0.415,-0.4145,-0.4116,-0.4123,-0.4114,-0.4091,-0.4091,-0.4102,-0.4141,-0.4157,-0.4178,-0.4124,-0.4125,-0.4125,0,-0.4469,-0.4443,-0.4426,-0.4383,-0.4375,-0.4365,-0.4336,-0.4319,-0.4287,-0.4269,-0.4249,-0.4221,-0.4206,-0.4186,-0.4166,-0.4161,-0.4149,-0.4134,-0.4134,-0.4131,-0.411,-0.414,-0.4184,-0.4187,-0.4128,-0.4128,-0.4127,0,-0.4514,-0.4475,-0.446,-0.4445,-0.4394,-0.4389,-0.4368,-0.4335,-0.432,-0.4294,-0.4284,-0.4258,-0.4244,-0.4225,-0.4191,-0.4179,-0.4174,-0.4152,-0.416,-0.4161,-0.4162,-0.4162,-0.4205,-0.4153,-0.4153,-0.4153,-0.4153,0,-0.4542,-0.4534,-0.4479,-0.447,-0.446,-0.442,-0.4411,-0.4387,-0.4358,-0.4344,-0.4309,-0.4297,-0.4253,-0.4236,-0.4209,-0.4197,-0.4191,-0.4177,-0.417,-0.4181,-0.4183,-0.4173,-0.4171,-0.4154,-0.4153,-0.4153,-0.4153,0,-0.4591,-0.4554,-0.4536,-0.4489,-0.4478,-0.4472,-0.4433,-0.4424,-0.4396,-0.438,-0.4374,-0.4332,-0.431,-0.4274,-0.4243,-0.4225,-0.4218,-0.4206,-0.4229,-0.4225,-0.4236,-0.4236,-0.4275,-0.4278,-0.4224,-0.4224,-0.4225,0,-0.4612,-0.4605,-0.4558,-0.4545,-0.4525,-0.4506,-0.4491,-0.4451,-0.4436,-0.4399,-0.4395,-0.437,-0.4349,-0.4316,-0.4284,-0.426,-0.4247,-0.4263,-0.4244,-0.4255,-0.4249,-0.425,-0.425,-0.4267,-0.4268,-0.4269,-0.4269,0,-0.4653,-0.4635,-0.4613,-0.4585,-0.4567,-0.4543,-0.4518,-0.451,-0.4465,-0.4451,-0.4428,-0.4411,-0.4379,-0.4355,-0.4327,-0.4306,-0.4281,-0.4275,-0.4276,-0.4287,-0.4301,-0.4295,-0.4242,-0.4275,-0.4274,-0.4274,-0.4274,-0.4273,-0.469,-0.4681,-0.4647,-0.4624,-0.46,-0.4577,-0.4566,-0.4538,-0.4518,-0.4488,-0.4465,-0.4445,-0.4414,-0.4372,-0.4353,-0.4337,-0.4325,-0.4326,-0.4327,-0.4328,-0.4333,-0.4303,-0.4332,-0.4331,-0.4331,-0.4331,-0.4331,0,-0.473,-0.4706,-0.4685,-0.465,-0.4632,-0.4608,-0.4579,-0.4566,-0.4548,-0.4521,-0.45,-0.4475,-0.4452,-0.4418,-0.4392,-0.4386,-0.4374,-0.4381,-0.4382,-0.4378,-0.4344,-0.4346,-0.4392,-0.4392,-0.4392,-0.4392,-0.4392,-0.4391,-0.4749,-0.4734,-0.4712,-0.4686,-0.4662,-0.464,-0.4626,-0.4605,-0.4583,-0.4556,-0.4536,-0.4514,-0.4484,-0.4456,-0.4435,-0.4425,-0.4418,-0.4429,-0.4416,-0.4386,-0.438,-0.4375,-0.4377,-0.4428,-0.4428,-0.4452,-0.4452,-0.4452]},{"header":{"parameterUnit":"m.s-1","parameterCategory":1,"la1":30.2991,"la2":30.254,"lo1":-89.0895,"lo2":-89.0444,"dy":0.0017,"dx":0.0017,"nx":28,"ny":28,"refTime":"2024-03-12T21:00:00:Z","depth":0,"parameterNumber":3,"parameterNumberName":"V-component_of_WINDS"},"data":[0,0,0,0,0,0,0,0,0,0,0,0,0,0,0,0,0,0,0,0,0,0,0,0,0,0,0,0,0,0,0,0,0,0,0,0,0,0,0,0,0,0,0,0,0,0,0,0,0,0,0,0,0,0,0,0,0,0,4.0104,4.0105,0,4.0134,4.0134,4.0134,4.0098,4.0097,4.0096,4.0094,4.0121,4.0123,4.0125,0,0,0,0,0,0,0,0,0,0,0,0,0,4.0013,4.0015,4.0104,4.0105,4.0105,4.0134,4.0134,4.0135,4.0098,4.0097,4.0095,4.0094,4.0121,4.0123,4.0125,0,0,0,0,0,0,0,0,0,0,0,0,0,4.0049,4.0016,4.0104,4.0091,4.009,4.0134,4.0134,4.0135,4.0099,4.0097,4.0095,4.0093,4.012,4.0123,4.0126,4.0184,0,0,4.0135,4.0136,0,0,0,0,0,0,0,0,4.0047,4.0052,4.0092,4.0092,4.0091,4.011,4.0112,4.0151,4.0099,4.0095,4.0094,4.0092,4.0119,4.0122,4.0132,4.0185,4.0186,4.0135,4.0137,4.0138,4.0139,0,0,0,0,0,0,0,4.0045,4.0051,4.0116,4.0093,4.0092,4.0082,4.0085,4.0119,4.0118,4.0095,4.0093,4.0097,4.0118,4.0129,4.0132,4.0186,4.0135,4.0137,4.0139,4.014,4.0288,4.029,0,0,0,0,0,0,4.0044,4.0049,4.0115,4.0117,4.0064,4.0085,4.0088,4.0106,4.0117,4.0117,4.0099,4.0095,4.0125,4.0129,4.0133,4.0201,4.0138,4.0141,4.0142,4.0285,4.0288,4.029,0,0,0,0,0,0,4.0042,4.005,4.0114,4.0082,4.009,4.0089,4.0109,4.0108,4.0118,4.012,4.0119,4.011,4.0124,4.0129,4.0171,4.0201,4.0142,4.0145,4.0283,4.0286,4.0289,4.0338,0,0,0,0,0,0,4.004,4.005,4.0073,4.0083,4.0091,4.0153,4.0111,4.011,4.0124,4.012,4.013,4.013,4.0122,4.0167,4.0174,4.0204,4.0147,4.028,4.0284,4.0288,4.0333,4.0342,4.035,0,0,0,0,0,4.0037,4.0085,4.0074,4.0082,4.012,4.0155,4.0159,4.015,4.0127,4.0149,4.015,4.013,4.0197,4.0172,4.0179,4.0211,4.0278,4.0283,4.0288,4.033,4.034,4.0349,0,0,0,0,0,0,4.0076,4.0086,4.0074,4.0127,4.014,4.0148,4.0176,4.0162,4.0181,4.0176,4.0163,4.0166,4.0211,4.0215,4.0187,4.0267,4.0234,4.024,4.0263,4.0273,4.0281,4.0278,4.0149,0,0,0,0,0,4.0092,4.012,4.0126,4.0172,4.0179,4.0177,4.0192,4.0183,4.0196,4.0202,4.0206,4.0218,4.0242,4.0258,4.028,4.0334,4.0335,4.0359,4.0367,4.0374,4.038,4.0408,4.0418,4.0306,4.0306,4.0306,0,0,4.0123,4.0131,4.015,4.018,4.019,4.0218,4.0182,4.0214,4.0234,4.0206,4.0246,4.025,4.0263,4.0311,4.0333,4.0316,4.0411,4.038,4.0386,4.0387,4.0414,4.0424,4.0434,4.0309,4.0309,4.0308,0,0,4.0194,4.0204,4.0243,4.0253,4.0269,4.0267,4.0276,4.0286,4.0288,4.0329,4.0308,4.0332,4.0373,4.0383,4.0394,4.0469,4.0451,4.0476,4.0519,4.0546,4.0555,4.0563,4.0589,4.0598,4.0482,4.0482,4.0482,0,4.023,4.0274,4.0264,4.0298,4.0312,4.0288,4.0327,4.0337,4.0359,4.0368,4.0349,4.0401,4.0408,4.0458,4.0477,4.0486,4.0496,4.0475,4.0555,4.0562,4.0569,4.0594,4.0604,4.0485,4.0485,4.0485,4.0484,0,4.0317,4.0347,4.0377,4.0399,4.0416,4.0452,4.0448,4.0466,4.0456,4.0456,4.0497,4.0505,4.0528,4.0539,4.053,4.0588,4.0577,4.0557,4.0523,4.0583,4.0606,4.0615,4.0489,4.0488,4.0487,4.0487,0,0,4.0413,4.0431,4.0442,4.0451,4.0466,4.0489,4.0524,4.0547,4.0563,4.0578,4.0606,4.0642,4.0623,4.0635,4.0627,4.0651,4.0709,4.0628,4.0628,4.0642,4.0773,4.0787,4.0798,4.0698,4.07,4.0701,4.0771,0,4.0484,4.0545,4.0538,4.0596,4.0623,4.0602,4.0632,4.0644,4.0644,4.0667,4.0667,4.0692,4.0666,4.0673,4.0697,4.0697,4.0735,4.0692,4.0723,4.0724,4.0719,4.0811,4.0826,4.0892,4.078,4.0782,4.0783,0,4.0575,4.0595,4.0656,4.0666,4.0677,4.0705,4.0725,4.0748,4.076,4.0759,4.0773,4.076,4.0794,4.076,4.0805,4.0776,4.0788,4.079,4.0793,4.0794,4.0756,4.0814,4.0913,4.0922,4.0797,4.0796,4.0795,0,4.0638,4.068,4.0721,4.073,4.0744,4.0764,4.077,4.0781,4.0796,4.0814,4.0823,4.0844,4.0856,4.0872,4.0865,4.0841,4.0911,4.0877,4.091,4.091,4.0925,4.0924,4.1026,4.0934,4.0934,4.0934,4.0934,0,4.0717,4.0755,4.075,4.0776,4.0817,4.0808,4.0849,4.0853,4.0863,4.0888,4.087,4.0894,4.0884,4.0906,4.0901,4.0939,4.0944,4.0943,4.0941,4.0944,4.0944,4.0951,4.0946,4.0937,4.0936,4.0936,4.0935,0,4.0794,4.0793,4.0837,4.0847,4.085,4.088,4.0888,4.0911,4.0911,4.0943,4.0949,4.0948,4.0974,4.0969,4.0997,4.0994,4.1041,4.1034,4.1037,4.1035,4.1068,4.1064,4.1177,4.1191,4.1091,4.1092,4.1093,0,4.0844,4.0873,4.0887,4.0903,4.0911,4.0937,4.0952,4.0944,4.096,4.0977,4.0998,4.1023,4.1042,4.1084,4.1085,4.1106,4.1098,4.1137,4.1101,4.1103,4.1098,4.1096,4.1098,4.1143,4.1144,4.1145,4.1146,0,4.0933,4.0931,4.0954,4.0977,4.0996,4.1013,4.1028,4.1042,4.1035,4.1054,4.1081,4.1096,4.1125,4.1149,4.1169,4.1174,4.1159,4.1157,4.1166,4.1169,4.1169,4.1168,4.1055,4.1154,4.1154,4.1153,4.1153,4.1152,4.0998,4.1022,4.1036,4.1061,4.1073,4.1087,4.111,4.1113,4.1135,4.1159,4.1153,4.1183,4.1194,4.1219,4.1227,4.125,4.1235,4.1248,4.1251,4.1254,4.1258,4.1167,4.1253,4.1253,4.1253,4.1253,4.1253,0,4.1085,4.1093,4.1117,4.1139,4.116,4.1145,4.1161,4.1178,4.1206,4.1218,4.1238,4.1268,4.1291,4.1294,4.1316,4.1334,4.1327,4.134,4.1337,4.1339,4.127,4.126,4.1344,4.1344,4.1344,4.1344,4.1344,4.1344,4.1133,4.1173,4.1173,4.1218,4.1225,4.1255,4.1265,4.1279,4.1289,4.1324,4.1343,4.1346,4.1354,4.1377,4.1397,4.1397,4.1405,4.1421,4.1418,4.1353,4.1344,4.1335,4.1325,4.1423,4.1423,4.1485,4.1486,4.1486]}]]